Location: Chandrammap?lem
(16.9200°N, 81.0051°E)
Time: 20:14:50
(UTC+00:00)

Cosmos 1656 Rocket - Pass Details

Date: 29 May 2024
Orbit: 795 x 844 km, 71.1° (Epoch: 16 June)

Event Time Altitude Azimuth Distance (km) Brightness Sun altitude
Rises 15:09:22 0° 335° (NNW) 3,335 7.7 -26.8°
Reaches altitude 10° 15:11:49 10° 331° (NNW) 2,410 6.9 -27.3°
Maximum altitude 15:17:11 53° 255° (WSW) 1,004 4.2 -28.3°
Enters shadow 15:18:02 48° 223° (SW) 1,065 4.1 -28.5°
